Weather in Orlovka

Russia / Belgorod Oblast     51°04′50″N   36°21′18″E
В апреле 2022 года жителям России запретили посещать сайт meteo.paraplan.net по решению Генеральной прокуратуры. Аудитория сайта уменьшилась в 10 раз. Владельцы сайта не видят смысла в поддержке погодного сервера в таких условиях. Сайт будет закрыт в октябре.
temp.,
°C
wind,
m/s
gust,
m/s
humid.,
%
clouds,
%
prec.,
mm/h
press.,
hPa
HPBL,
m
5 october, wed
wed500:00+8sw61085100 0.2 1015864
03:00+8sw6118898 0.4 1015723
06:00+8wsw5991100 0.2 1016550
09:00+8wsw5891100 0.6 1018557
12:00+8wsw5991100 1.1 1019618
15:00+9wnw6879100 1.8 1020970
18:00+8w4985100 0.1 1022566
21:00+8w498596 0.3 1023425
6 october, thu
thu600:00+7w4990100 0.0 1024325
03:00+8w4892100 0.0 1024348
06:00+6wsw389698 0.0 1024181
09:00+9wsw588591 0.0 1024327
12:00+10sw4885100 0.0 1024371
15:00+10sw498698 0.0 1023368
18:00+11sw33875 0.0 102341
21:00+9wsw37905 0.0 1023113
7 october, fri
fri700:00+9w389268 0.0 1023136
03:00+8w36945 0.0 1023113
06:00+8wnw37955 0.0 1024135
09:00+11nw488846 0.0 1025303
12:00+15nnw57640 0.0 1025726
15:00+16nnw56510 0.0 1025832
18:00+11nnw34730 0.0 102651
21:00+10n23820 0.0 102724
8 october, sat
sat800:00+8nne22870 0.0 102810
03:00+7ene11880 0.0 102810
06:00+7e22890 0.0 102810
09:00+10se22760 0.0 1027164
12:00+15sse33565 0.0 1026649
15:00+16sse33485 0.0 1024882
18:00+12se33675 0.0 102324
21:00+10se347251 0.0 102352
9 october, sun
sun900:00+9sse347377 0.0 102349
03:00+8sse337495 0.0 102237
06:00+8sse3579100 0.0 102169
09:00+11s3676100 0.0 1020200
12:00+15ssw4560100 0.0 1019610
15:00+16wsw4459100 0.0 1018875
18:00+13wnw3778100 0.0 1019188
21:00+10nnw61185100 0.0 1021522